Weather History for Mount Ida, AR

Change the Weather History Date:

Monday, February 4, 2013

  Actual Average (KHOT) Record (KHOT)
Temperature  
Mean Temperature 46 °F -  
Max Temperature 52 °F 53 °F 73 °F (2008)
Min Temperature 39 °F 31 °F 10 °F (1985)
Degree Days  
Heating Degree Days 20    
Moisture  
Dew Point 43 °F    
Average Humidity 82    
Maximum Humidity 100    
Minimum Humidity 45    
Precipitation  
Precipitation 0.06 in - - ()
Sea Level Pressure  
Sea Level Pressure 29.92 in    
Wind  
Wind Speed 1 mph (NW)    
Max Wind Speed 6 mph    
Max Gust Speed -    
Visibility 8 miles    
Events Fog , Rain    
Averages and records for this station are not official NWS values.
T = Trace of Precipitation, MM = Missing Value Source: NWS Daily Summary

Daily Weather History Graph

Daily Weather History Graph

Search for Another Location

Airport:

Trip Planner

Search our weather history database for the weather conditions in past years. The results will help you decide how hot, cold, wet, or windy it might be!

Date:

Astronomy

Feb. 04, 2013 Rise Set
Actual Time 7:09 AM CST 5:47 PM CST
Civil Twilight 6:43 AM CST 6:13 PM CST
Nautical Twilight 6:13 AM CST 6:43 PM CST
Astronomical Twilight 5:44 AM CST 7:13 PM CST
Moon 1:43 AM CST (2/4) 12:15 PM CST (2/4)
Length of Visible Light 11h 30m
Length of Day
10h 37m
Last Quarter, 37% of the Moon is Illuminated
Feb 4
Last Quarter
Feb 10
New
Feb 17
First Quarter
Feb 25
Full
Mar 4
Last Quarter

Hourly Weather History & Observations

Time (CST) Temp. Dew Point Humidity Pressure Visibility Wind Dir Wind Speed Gust Speed Precip Events Conditions
12:53 AM 39.9 °F 33.1 °F 77% 30.02 in 10.0 mi Calm Calm - N/A   Clear
1:53 AM 41.0 °F 33.1 °F 73% 30.00 in 10.0 mi Calm Calm - N/A   Clear
2:53 AM 42.1 °F 32.0 °F 67% 29.98 in 10.0 mi Calm Calm - N/A   Clear
4:53 AM 43.0 °F 34.0 °F 71% 29.97 in 10.0 mi Calm Calm - N/A   Overcast
5:53 AM 50.0 °F 32.0 °F 50% 29.95 in 10.0 mi Variable 3.5 mph - 0.00 in Rain Light Rain
6:53 AM 52.0 °F 30.9 °F 45% 29.94 in 10.0 mi Variable 5.8 mph - 0.00 in   Overcast
7:53 AM 50.0 °F 35.1 °F 57% 29.97 in 9.0 mi Calm Calm - 0.00 in Rain Light Rain
8:53 AM 46.9 °F 41.0 °F 80% 29.98 in 10.0 mi Calm Calm - 0.02 in Rain Light Rain
9:53 AM 50.0 °F 39.0 °F 66% 29.97 in 8.0 mi Variable 4.6 mph - 0.01 in Rain Light Rain
10:53 AM 50.0 °F 42.1 °F 74% 29.99 in 10.0 mi Calm Calm - 0.01 in Rain Light Rain
11:53 AM 48.9 °F 42.1 °F 77% 29.94 in 10.0 mi Variable 4.6 mph - 0.01 in Rain Light Rain
12:53 PM 50.0 °F 42.1 °F 74% 29.91 in 10.0 mi Calm Calm - 0.01 in   Overcast
1:53 PM 51.1 °F 44.1 °F 77% 29.88 in 10.0 mi Calm Calm - N/A   Overcast
2:53 PM 51.1 °F 45.0 °F 80% 29.86 in 10.0 mi Calm Calm - N/A   Overcast
3:22 PM 51.8 °F 44.6 °F 76% 29.85 in 10.0 mi Calm Calm - N/A   Overcast
3:53 PM 50.0 °F 46.0 °F 86% 29.88 in 10.0 mi Calm Calm - N/A   Overcast
4:36 PM 50.0 °F 46.4 °F 87% 29.87 in 10.0 mi Variable 3.5 mph - N/A   Overcast
4:53 PM 50.0 °F 46.9 °F 89% 29.88 in 9.0 mi Calm Calm - N/A   Overcast
5:53 PM 50.0 °F 46.9 °F 89% 29.88 in 8.0 mi Calm Calm - N/A   Overcast
6:23 PM 48.2 °F 46.4 °F 93% 29.87 in 10.0 mi Calm Calm - N/A   Overcast
6:30 PM 48.2 °F 46.4 °F 93% 29.87 in 10.0 mi Calm Calm - N/A   Overcast
6:45 PM 48.2 °F 46.4 °F 93% 29.89 in 9.0 mi Calm Calm - N/A   Overcast
6:53 PM 48.9 °F 46.9 °F 93% 29.90 in 9.0 mi Calm Calm - N/A   Overcast
7:53 PM 48.9 °F 46.9 °F 93% 29.91 in 9.0 mi Calm Calm - N/A   Overcast
8:44 PM 48.2 °F 46.4 °F 93% 29.91 in 8.0 mi Calm Calm - N/A   Overcast
8:53 PM 48.9 °F 46.9 °F 93% 29.92 in 8.0 mi Calm Calm - N/A   Overcast
9:53 PM 48.9 °F 46.9 °F 93% 29.93 in 8.0 mi Calm Calm - N/A   Overcast
10:25 PM 48.2 °F 46.4 °F 93% 29.92 in 6.0 mi NW 3.5 mph - N/A   Overcast
10:53 PM 48.0 °F 46.9 °F 96% 29.94 in 5.0 mi Calm Calm - N/A   Mostly Cloudy
11:21 PM 48.2 °F 46.4 °F 93% 29.93 in 2.5 mi Calm Calm - N/A   Overcast
11:35 PM 48.2 °F 46.4 °F 93% 29.93 in 1.5 mi Variable 3.5 mph - N/A   Overcast
11:45 PM 46.4 °F 46.4 °F 100% 29.93 in 0.5 mi Calm Calm - N/A Fog Fog
11:53 PM 46.9 °F 46.9 °F 100% 29.94 in 0.5 mi Calm Calm - N/A Fog Fog